This is the latest recevied weather packets stored in our database for station/object N2OCK. If no packets are shown the sender has not sent any weather packets the latest 10 day(s).
| Time | Temp. | Humidity | Pressure | Rain* | Wind** | Luminosity | Snow |
|---|---|---|---|---|---|---|---|
| 1777469406 | 16.11° C | 57% | 1015.4 hPa | 0 mm | - | 435 W/m² | - |
| 1777469101 | 16.11° C | 57% | 1015.4 hPa | 0 mm | - | 451 W/m² | - |
| 1777468801 | 15.56° C | 59% | 1015.5 hPa | 0 mm | - | 438 W/m² | - |
| 1777468498 | 15.56° C | 59% | 1015.8 hPa | 0 mm | - | 419 W/m² | - |
| 1777468195 | 15.56° C | 60% | 1015.9 hPa | 0 mm | - | 409 W/m² | - |
| 1777467890 | 15.56° C | 60% | 1015.9 hPa | 0 mm | - | 394 W/m² | - |
| 1777467586 | 15.56° C | 63% | 1016 hPa | 0 mm | - | 387 W/m² | - |
| 1777467282 | 15° C | 64% | 1016.3 hPa | 0 mm | - | 369 W/m² | - |
| 1777466978 | 15° C | 67% | 1016.1 hPa | 0 mm | - | 356 W/m² | - |
| 1777466676 | 15° C | 64% | 1016 hPa | 0 mm | - | 340 W/m² | - |
| 1777466372 | 14.44° C | 67% | 1016.3 hPa | 0 mm | - | 325 W/m² | - |
| 1777466068 | 13.89° C | 68% | 1016.4 hPa | 0 mm | - | 310 W/m² | - |
| 1777465766 | 13.89° C | 68% | 1016.3 hPa | 0 mm | - | 297 W/m² | - |
| 1777465461 | 13.89° C | 71% | 1016.2 hPa | 0 mm | - | 67 W/m² | - |
| 1777465160 | 13.33° C | 70% | 1016.5 hPa | 0 mm | - | 261 W/m² | - |
| 1777464855 | 13.33° C | 70% | 1016.3 hPa | 0 mm | - | 71 W/m² | - |
| 1777464551 | 12.78° C | 71% | 1016.2 hPa | 0 mm | - | 257 W/m² | - |
| 1777464247 | 12.78° C | 73% | 1016.5 hPa | 0 mm | - | 193 W/m² | - |
| 1777463942 | 12.78° C | 75% | 1016.6 hPa | 0 mm | - | 190 W/m² | - |
| 1777463638 | 11.67° C | 77% | 1016.7 hPa | 0 mm | - | 171 W/m² | - |
| 1777463333 | 11.67° C | 77% | 1016.7 hPa | 0 mm | - | 123 W/m² | - |
| 1777463030 | 11.11° C | 78% | 1016.8 hPa | 0 mm | - | 100 W/m² | - |
| 1777462725 | 11.11° C | 79% | 1017.1 hPa | 0 mm | - | 89 W/m² | - |
| 1777462420 | 11.11° C | 80% | 1017.2 hPa | 0 mm | - | 97 W/m² | - |
| 1777462117 | 10.56° C | 80% | 1017 hPa | 0 mm | - | 91 W/m² | - |
* Rain latest hour (hover to see other rain measurements)
** Current wind speed in m/s (hover to see current wind gust speed)